Tiempo cada hora Murashki

Hoy, 29 Octubre, Jueves

Tiempo Temperatura Precipitaciones Viento Presión Humedad
00:00 +11°C° 0 mm 4 mps 748 mmHg 86%
01:00 +11°C° 0 mm 3 mps 748 mmHg 87%
02:00 +11°C° 0 mm 3 mps 748 mmHg 88%
03:00 +11°C° 0.1 mm 3 mps 748 mmHg 89%
04:00 +10°C° 0.1 mm 3 mps 747 mmHg 91%
05:00 +10°C° 0.1 mm 3 mps 747 mmHg 92%
06:00 +10°C° 0 mm 3 mps 747 mmHg 92%
07:00 +10°C° 0 mm 3 mps 747 mmHg 92%
08:00 +10°C° 0 mm 3 mps 747 mmHg 92%
09:00 +10°C° 0.1 mm 3 mps 747 mmHg 91%
10:00 +10°C° 0.1 mm 3 mps 747 mmHg 90%
11:00 +10°C° 0.1 mm 3 mps 747 mmHg 89%
12:00 +11°C° 0.3 mm 3 mps 747 mmHg 89%
13:00 +11°C° 0.3 mm 3 mps 746 mmHg 89%
14:00 +11°C° 0.3 mm 3 mps 746 mmHg 89%
15:00 +11°C° 0.6 mm 3 mps 746 mmHg 91%
16:00 +10°C° 0.6 mm 2 mps 746 mmHg 93%
17:00 +10°C° 0.6 mm 2 mps 746 mmHg 95%
18:00 +10°C° 0.4 mm 2 mps 746 mmHg 95%
19:00 +10°C° 0.4 mm 2 mps 746 mmHg 95%
20:00 +10°C° 0.4 mm 2 mps 746 mmHg 95%
21:00 +10°C° 0 mm 2 mps 746 mmHg 95%
22:00 +9°C° 0 mm 2 mps 745 mmHg 96%
23:00 +9°C° 0 mm 2 mps 745 mmHg 96%

Mañana, 30 Octubre, Viernes

Tiempo Temperatura Precipitaciones Viento Presión Humedad
00:00 +9°C° 0 mm 2 mps 745 mmHg 95%
01:00 +9°C° 0 mm 2 mps 745 mmHg 95%
02:00 +10°C° 0 mm 1 mps 745 mmHg 94%
03:00 +9°C° 0 mm 2 mps 745 mmHg 95%
04:00 +8°C° 0 mm 2 mps 745 mmHg 95%
05:00 +8°C° 0 mm 2 mps 745 mmHg 95%
06:00 +8°C° 0 mm 2 mps 745 mmHg 95%
07:00 +8°C° 0 mm 2 mps 746 mmHg 95%
08:00 +8°C° 0 mm 2 mps 746 mmHg 95%
09:00 +8°C° 0.2 mm 2 mps 746 mmHg 94%
10:00 +9°C° 0.2 mm 2 mps 746 mmHg 93%
11:00 +9°C° 0.2 mm 2 mps 746 mmHg 92%
12:00 +9°C° 0.2 mm 2 mps 746 mmHg 89%
13:00 +9°C° 0.2 mm 2 mps 746 mmHg 87%
14:00 +10°C° 0.2 mm 2 mps 746 mmHg 85%
15:00 +9°C° 0.2 mm 2 mps 746 mmHg 87%
16:00 +8°C° 0.2 mm 2 mps 746 mmHg 88%
17:00 +8°C° 0.2 mm 2 mps 746 mmHg 90%
18:00 +8°C° 0 mm 1 mps 746 mmHg 91%
19:00 +8°C° 0 mm 1 mps 746 mmHg 92%
20:00 +7°C° 0 mm 1 mps 746 mmHg 92%
21:00 +8°C° 0 mm 1 mps 746 mmHg 92%
22:00 +8°C° 0 mm 1 mps 747 mmHg 92%
23:00 +8°C° 0 mm 1 mps 747 mmHg 92%

Pasado mañana, 31 Octubre, Sábado

Tiempo Temperatura Precipitaciones Viento Presión Humedad
00:00 +8°C° 0.1 mm 1 mps 747 mmHg 92%
01:00 +7°C° 0.1 mm 2 mps 747 mmHg 93%
02:00 +6°C° 0.1 mm 2 mps 747 mmHg 93%
03:00 +6°C° 0.1 mm 2 mps 748 mmHg 94%
04:00 +6°C° 0.1 mm 2 mps 748 mmHg 95%
05:00 +6°C° 0.1 mm 2 mps 748 mmHg 96%
06:00 +7°C° 0 mm 1 mps 749 mmHg 96%
07:00 +7°C° 0 mm 1 mps 750 mmHg 96%
08:00 +7°C° 0 mm 1 mps 750 mmHg 96%
09:00 +8°C° 0 mm 1 mps 751 mmHg 94%
10:00 +9°C° 0 mm 1 mps 751 mmHg 91%
11:00 +9°C° 0 mm 2 mps 752 mmHg 89%
12:00 +9°C° 0 mm 2 mps 752 mmHg 88%
13:00 +10°C° 0 mm 2 mps 753 mmHg 87%
14:00 +10°C° 0 mm 3 mps 753 mmHg 87%
15:00 +10°C° 0 mm 2 mps 753 mmHg 88%
16:00 +9°C° 0 mm 2 mps 754 mmHg 90%
17:00 +9°C° 0 mm 2 mps 754 mmHg 92%
18:00 +8°C° 0 mm 2 mps 754 mmHg 92%
19:00 +8°C° 0 mm 2 mps 755 mmHg 92%
20:00 +7°C° 0 mm 2 mps 755 mmHg 92%
21:00 +7°C° 0 mm 2 mps 756 mmHg 93%
22:00 +7°C° 0 mm 2 mps 756 mmHg 94%
23:00 +7°C° 0 mm 2 mps 756 mmHg 94%

1 Noviembre, Domingo

Tiempo Temperatura Precipitaciones Viento Presión Humedad
00:00 +7°C° 0 mm 2 mps 756 mmHg 95%
01:00 +8°C° 0 mm 1 mps 756 mmHg 95%
02:00 +8°C° 0 mm 1 mps 757 mmHg 95%
03:00 +7°C° 0 mm 1 mps 757 mmHg 95%
04:00 +7°C° 0 mm 1 mps 757 mmHg 95%
05:00 +7°C° 0 mm 1 mps 757 mmHg 95%
06:00 +7°C° 0 mm 1 mps 757 mmHg 94%
07:00 +7°C° 0 mm 1 mps 757 mmHg 93%
08:00 +7°C° 0 mm 1 mps 757 mmHg 93%
09:00 +8°C° 0 mm 1 mps 757 mmHg 89%
10:00 +9°C° 0 mm 1 mps 757 mmHg 85%
11:00 +10°C° 0 mm 1 mps 757 mmHg 81%
12:00 +9°C° 0 mm 2 mps 757 mmHg 78%
13:00 +10°C° 0 mm 2 mps 757 mmHg 76%
14:00 +10°C° 0 mm 2 mps 756 mmHg 73%
15:00 +9°C° 0 mm 2 mps 756 mmHg 76%
16:00 +8°C° 0 mm 2 mps 756 mmHg 79%
17:00 +8°C° 0 mm 2 mps 756 mmHg 82%
18:00 +7°C° 0 mm 2 mps 756 mmHg 85%
19:00 +6°C° 0 mm 2 mps 756 mmHg 88%
20:00 +5°C° 0 mm 2 mps 756 mmHg 91%
21:00 +5°C° 0 mm 2 mps 755 mmHg 92%
22:00 +5°C° 0 mm 2 mps 755 mmHg 93%
23:00 +4°C° 0 mm 2 mps 755 mmHg 93%

2 Noviembre, Lunes

Tiempo Temperatura Precipitaciones Viento Presión Humedad
00:00 +4°C° 0 mm 2 mps 755 mmHg 93%
01:00 +4°C° 0 mm 2 mps 755 mmHg 93%
02:00 +3°C° 0 mm 3 mps 755 mmHg 93%
03:00 +2°C° 0 mm 3 mps 754 mmHg 93%
04:00 +3°C° 0 mm 2 mps 754 mmHg 92%
05:00 +3°C° 0 mm 2 mps 754 mmHg 92%
06:00 +3°C° 0 mm 2 mps 754 mmHg 92%
07:00 +1°C° 0 mm 3 mps 754 mmHg 92%
08:00 +1°C° 0 mm 3 mps 755 mmHg 92%
09:00 +2°C° 0 mm 3 mps 754 mmHg 89%
10:00 +4°C° 0 mm 4 mps 754 mmHg 85%
11:00 +5°C° 0 mm 4 mps 754 mmHg 82%
12:00 +5°C° 0 mm 4 mps 754 mmHg 82%
13:00 +5°C° 0 mm 4 mps 754 mmHg 83%
14:00 +6°C° 0 mm 4 mps 754 mmHg 84%
15:00 +6°C° 0 mm 4 mps 754 mmHg 85%
16:00 +5°C° 0 mm 4 mps 754 mmHg 86%
17:00 +5°C° 0 mm 4 mps 754 mmHg 87%
18:00 +5°C° 0 mm 4 mps 754 mmHg 89%
19:00 +5°C° 0 mm 4 mps 754 mmHg 91%
20:00 +5°C° 0 mm 4 mps 754 mmHg 92%
21:00 +4°C° 0 mm 3 mps 755 mmHg 93%
22:00 +4°C° 0 mm 3 mps 755 mmHg 94%
23:00 +4°C° 0 mm 3 mps 755 mmHg 94%

3 Noviembre, Martes

Tiempo Temperatura Precipitaciones Viento Presión Humedad
00:00 +4°C° 0 mm 3 mps 755 mmHg 95%
01:00 +4°C° 0 mm 3 mps 755 mmHg 95%
02:00 +4°C° 0 mm 3 mps 755 mmHg 95%
03:00 +4°C° 0 mm 3 mps 755 mmHg 95%
04:00 +4°C° 0 mm 3 mps 755 mmHg 96%
05:00 +4°C° 0 mm 3 mps 755 mmHg 96%
06:00 +4°C° 0 mm 3 mps 755 mmHg 96%
07:00 +5°C° 0 mm 2 mps 756 mmHg 96%
08:00 +5°C° 0 mm 2 mps 756 mmHg 97%
09:00 +5°C° 0 mm 3 mps 756 mmHg 95%
10:00 +7°C° 0 mm 3 mps 756 mmHg 94%
11:00 +8°C° 0 mm 3 mps 756 mmHg 92%
12:00 +9°C° 0 mm 3 mps 756 mmHg 92%
13:00 +8°C° 0 mm 4 mps 756 mmHg 91%
14:00 +8°C° 0 mm 4 mps 756 mmHg 90%
15:00 +8°C° 0 mm 4 mps 756 mmHg 90%
16:00 +8°C° 0 mm 4 mps 756 mmHg 90%
17:00 +8°C° 0 mm 4 mps 756 mmHg 90%
18:00 +8°C° 0 mm 3 mps 757 mmHg 91%
19:00 +8°C° 0 mm 3 mps 757 mmHg 91%
20:00 +7°C° 0 mm 2 mps 757 mmHg 92%
21:00 +7°C° 0 mm 2 mps 757 mmHg 93%
22:00 +7°C° 0 mm 2 mps 758 mmHg 94%
23:00 +7°C° 0 mm 2 mps 758 mmHg 95%
Mostrar más

Necesitamos Su Consentimiento

Meteoprog y nuestros Proveedores de Servicios pueden almacenar y acceder a sus datos personales como cookies, identificadores de dispositivo u otras tecnologías similares de su dispositivo y procesar dichos datos para personalizar contenido y anuncios, además de ofrecer funciones de redes sociales y analizar el tráfico.

  • Almacenar y/o acceder a información en su dispositivo

    Se puede almacenar o acceder a cookies, identificadores de dispositivo u otra información de su dispositivo para los fines anteriormente indicados.

  • Anuncios y contenido personalizados, medición de anuncios y contenido, percepciones del público, y desarrollo de productos

    Los anuncios y el contenido pueden personalizarse en base a su perfil. Se pueden añadir más datos para personalizar mejor los anuncios y contenidos. Se puede medir el rendimiento de los anuncios y contenidos. Se puede obtener la percepción sobre el público que ha visto los anuncios y contenidos. Dichos datos pueden usarse para desarrollar o mejorar la experiencia del usuario, sistemas y software.

Al hacer clic en ‘Estoy De Acuerdo’ usted permitirá el uso de las cookies, identificadores de dispositivo, balizas web u otras tecnologías similares indicadas. Su configuración puede cambiarse desde el navegador de su dispositivo.

Para ciertos fines, los intereses legítimos pueden ser considerados por encima del consentimiento. Puede leer más sobre ello en nuestra Política de Privacidad y Cookies.